Time,TemperatureF,DewpointF,PressureIn,WindDirection,WindDirectionDegrees,WindSpeedMPH,WindSpeedGustMPH,Humidity,HourlyPrecipIn,Conditions,Clouds,dailyrainin,SoftwareType,DateUTC
2013-03-11 00:06:00,53.3,49.0,29.68,South,182,11.0,-999.0,85,-99.99,,,0.00,weatherlink.com 1.10,2013-03-11 04:06:00,
2013-03-11 00:21:00,52.6,50.0,29.68,South,187,12.0,-999.0,89,-99.99,,,0.00,weatherlink.com 1.10,2013-03-11 04:21:00,
2013-03-11 00:36:00,52.1,50.0,29.67,South,184,11.0,-999.0,92,-99.99,,,0.01,weatherlink.com 1.10,2013-03-11 04:36:00,
2013-03-11 00:51:00,52.2,50.0,29.67,SSW,192,13.0,-999.0,93,-99.99,,,0.01,weatherlink.com 1.10,2013-03-11 04:51:00,
2013-03-11 01:06:00,52.3,51.0,29.66,South,187,11.0,-999.0,94,-99.99,,,0.01,weatherlink.com 1.10,2013-03-11 05:06:00,
2013-03-11 01:36:00,51.9,51.0,29.66,South,178,8.0,-999.0,95,-99.99,,,0.02,weatherlink.com 1.10,2013-03-11 05:36:00,
2013-03-11 01:51:00,52.1,51.0,29.66,South,178,6.0,-999.0,96,-99.99,,,0.02,weatherlink.com 1.10,2013-03-11 05:51:00,
2013-03-11 02:06:00,52.1,51.0,29.66,South,190,8.0,-999.0,96,-99.99,,,0.02,weatherlink.com 1.10,2013-03-11 06:06:00,
2013-03-11 02:21:00,52.3,51.0,29.65,SSW,194,7.0,-999.0,96,-99.99,,,0.02,weatherlink.com 1.10,2013-03-11 06:21:00,
2013-03-11 02:51:00,52.0,51.0,29.65,SSW,205,7.0,-999.0,96,-99.99,,,0.02,weatherlink.com 1.10,2013-03-11 06:51:00,
2013-03-11 03:06:00,52.0,51.0,29.65,SW,218,5.0,-999.0,97,-99.99,,,0.02,weatherlink.com 1.10,2013-03-11 07:06:00,
2013-03-11 03:21:00,51.9,51.0,29.64,SW,215,5.0,-999.0,97,-99.99,,,0.02,weatherlink.com 1.10,2013-03-11 07:21:00,
2013-03-11 03:36:00,51.6,51.0,29.64,SW,219,3.0,-999.0,96,-99.99,,,0.02,weatherlink.com 1.10,2013-03-11 07:36:00,
2013-03-11 03:51:00,51.3,51.0,29.64,SW,219,3.0,-999.0,97,-99.99,,,0.02,weatherlink.com 1.10,2013-03-11 07:51:00,
2013-03-11 04:06:00,51.2,50.0,29.63,SW,217,4.0,-999.0,97,-99.99,,,0.02,weatherlink.com 1.10,2013-03-11 08:06:00,
2013-03-11 04:21:00,51.4,51.0,29.62,SW,236,8.0,-999.0,97,-99.99,,,0.02,weatherlink.com 1.10,2013-03-11 08:21:00,
2013-03-11 04:36:00,51.7,50.0,29.61,SW,217,7.0,-999.0,94,-99.99,,,0.02,weatherlink.com 1.10,2013-03-11 08:36:00,
2013-03-11 04:51:00,51.4,50.0,29.61,SW,218,5.0,-999.0,93,-99.99,,,0.02,weatherlink.com 1.10,2013-03-11 08:51:00,
2013-03-11 05:06:00,50.9,49.0,29.61,SW,219,3.0,-999.0,93,-99.99,,,0.02,weatherlink.com 1.10,2013-03-11 09:06:00,
2013-03-11 05:21:00,50.8,49.0,29.61,SW,219,3.0,-999.0,94,-99.99,,,0.02,weatherlink.com 1.10,2013-03-11 09:21:00,
2013-03-11 05:36:00,50.7,49.0,29.60,WSW,237,3.0,-999.0,94,-99.99,,,0.02,weatherlink.com 1.10,2013-03-11 09:36:00,
2013-03-11 05:51:00,50.3,49.0,29.61,SW,227,3.0,-999.0,94,-99.99,,,0.02,weatherlink.com 1.10,2013-03-11 09:51:00,
2013-03-11 06:06:00,50.0,49.0,29.59,SW,221,4.0,-999.0,95,-99.99,,,0.02,weatherlink.com 1.10,2013-03-11 10:06:00,
2013-03-11 06:21:00,49.7,48.0,29.59,SSW,198,5.0,-999.0,94,-99.99,,,0.02,weatherlink.com 1.10,2013-03-11 10:21:00,
2013-03-11 06:36:00,49.6,48.0,29.63,SW,221,5.0,-999.0,93,-99.99,,,0.02,weatherlink.com 1.10,2013-03-11 10:36:00,
2013-03-11 06:51:00,49.2,47.0,29.63,SSW,204,7.0,-999.0,93,-99.99,,,0.02,weatherlink.com 1.10,2013-03-11 10:51:00,
2013-03-11 07:06:00,48.9,47.0,29.62,SSW,204,4.0,-999.0,94,-99.99,,,0.02,weatherlink.com 1.10,2013-03-11 11:06:00,
2013-03-11 07:21:00,49.2,48.0,29.61,South,175,6.0,-999.0,95,-99.99,,,0.02,weatherlink.com 1.10,2013-03-11 11:21:00,
2013-03-11 07:36:00,49.5,48.0,29.60,SSW,198,7.0,-999.0,95,-99.99,,,0.02,weatherlink.com 1.10,2013-03-11 11:36:00,
2013-03-11 07:51:00,49.7,48.0,29.60,SSW,194,9.0,-999.0,94,-99.99,,,0.02,weatherlink.com 1.10,2013-03-11 11:51:00,
2013-03-11 08:06:00,49.5,48.0,29.59,SSW,196,7.0,-999.0,93,-99.99,,,0.02,weatherlink.com 1.10,2013-03-11 12:06:00,
2013-03-11 08:21:00,49.3,48.0,29.60,SSW,206,7.0,-999.0,94,-99.99,,,0.02,weatherlink.com 1.10,2013-03-11 12:21:00,
2013-03-11 08:37:00,49.0,47.0,29.60,WSW,238,13.0,-999.0,94,-99.99,,,0.02,weatherlink.com 1.10,2013-03-11 12:37:00,
2013-03-11 08:52:00,47.0,46.0,29.60,WSW,242,7.0,-999.0,95,-99.99,,,0.02,weatherlink.com 1.10,2013-03-11 12:52:00,
2013-03-11 09:07:00,46.2,45.0,29.61,SW,236,6.0,-999.0,96,-99.99,,,0.03,weatherlink.com 1.10,2013-03-11 13:07:00,
2013-03-11 09:22:00,45.6,45.0,29.61,WSW,252,10.0,-999.0,96,-99.99,,,0.03,weatherlink.com 1.10,2013-03-11 13:22:00,
2013-03-11 09:37:00,45.2,44.0,29.61,WSW,254,6.0,-999.0,97,-99.99,,,0.03,weatherlink.com 1.10,2013-03-11 13:37:00,
2013-03-11 09:52:00,45.1,44.0,29.61,WSW,242,5.0,-999.0,97,-99.99,,,0.03,weatherlink.com 1.10,2013-03-11 13:52:00,
2013-03-11 10:07:00,45.0,44.0,29.60,WSW,242,7.0,-999.0,96,-99.99,,,0.03,weatherlink.com 1.10,2013-03-11 14:07:00,
2013-03-11 10:22:00,44.9,44.0,29.60,West,269,7.0,-999.0,96,-99.99,,,0.03,weatherlink.com 1.10,2013-03-11 14:22:00,
2013-03-11 10:37:00,44.6,44.0,29.60,WSW,251,5.0,-999.0,96,-99.99,,,0.03,weatherlink.com 1.10,2013-03-11 14:37:00,
2013-03-11 10:52:00,44.4,43.0,29.61,SW,232,5.0,-999.0,96,-99.99,,,0.03,weatherlink.com 1.10,2013-03-11 14:52:00,
2013-03-11 11:07:00,44.0,43.0,29.60,West,261,5.0,-999.0,97,-99.99,,,0.03,weatherlink.com 1.10,2013-03-11 15:07:00,
2013-03-11 11:22:00,43.3,43.0,29.60,WSW,254,8.0,-999.0,97,-99.99,,,0.04,weatherlink.com 1.10,2013-03-11 15:22:00,
2013-03-11 11:37:00,43.1,42.0,29.61,West,269,4.0,-999.0,97,-99.99,,,0.04,weatherlink.com 1.10,2013-03-11 15:37:00,
2013-03-11 11:52:00,42.9,42.0,29.60,WSW,240,8.0,-999.0,97,-99.99,,,0.04,weatherlink.com 1.10,2013-03-11 15:52:00,
2013-03-11 12:07:00,42.0,41.0,29.61,WSW,248,14.0,-999.0,96,-99.99,,,0.04,weatherlink.com 1.10,2013-03-11 16:07:00,
2013-03-11 12:22:00,41.2,40.0,29.61,WSW,245,11.0,-999.0,95,-99.99,,,0.04,weatherlink.com 1.10,2013-03-11 16:22:00,
2013-03-11 12:37:00,41.2,40.0,29.60,WSW,239,9.0,-999.0,94,-99.99,,,0.04,weatherlink.com 1.10,2013-03-11 16:37:00,
2013-03-11 12:52:00,41.3,39.0,29.60,WSW,254,12.0,-999.0,92,-99.99,,,0.04,weatherlink.com 1.10,2013-03-11 16:52:00,
2013-03-11 13:07:00,41.7,40.0,29.61,WSW,246,14.0,-999.0,92,-99.99,,,0.04,weatherlink.com 1.10,2013-03-11 17:07:00,
2013-03-11 13:22:00,41.0,39.0,29.61,WSW,240,11.0,-999.0,91,-99.99,,,0.04,weatherlink.com 1.10,2013-03-11 17:22:00,
2013-03-11 13:37:00,40.2,38.0,29.62,WSW,254,16.0,-999.0,92,-99.99,,,0.04,weatherlink.com 1.10,2013-03-11 17:37:00,
2013-03-11 13:52:00,39.8,38.0,29.62,WSW,248,11.0,-999.0,92,-99.99,,,0.04,weatherlink.com 1.10,2013-03-11 17:52:00,
2013-03-11 14:07:00,39.6,38.0,29.62,West,265,10.0,-999.0,93,-99.99,,,0.04,weatherlink.com 1.10,2013-03-11 18:07:00,
2013-03-11 14:22:00,39.4,37.0,29.61,WSW,237,17.0,-999.0,91,-99.99,,,0.04,weatherlink.com 1.10,2013-03-11 18:22:00,
2013-03-11 14:37:00,39.1,37.0,29.61,WSW,239,10.0,-999.0,91,-99.99,,,0.04,weatherlink.com 1.10,2013-03-11 18:37:00,
2013-03-11 14:52:00,38.8,36.0,29.61,SW,227,12.0,-999.0,90,-99.99,,,0.04,weatherlink.com 1.10,2013-03-11 18:52:00,
2013-03-11 15:07:00,38.2,36.0,29.62,SW,230,14.0,-999.0,92,-99.99,,,0.04,weatherlink.com 1.10,2013-03-11 19:07:00,
2013-03-11 15:22:00,37.7,35.0,29.62,SW,236,14.0,-999.0,91,-99.99,,,0.04,weatherlink.com 1.10,2013-03-11 19:22:00,
2013-03-11 15:37:00,37.4,35.0,29.63,WSW,249,21.0,-999.0,92,-99.99,,,0.04,weatherlink.com 1.10,2013-03-11 19:37:00,
2013-03-11 15:53:00,37.0,35.0,29.64,WSW,238,17.0,-999.0,91,-99.99,,,0.04,weatherlink.com 1.10,2013-03-11 19:53:00,
2013-03-11 16:08:00,37.0,35.0,29.64,SW,216,10.0,-999.0,91,-99.99,,,0.04,weatherlink.com 1.10,2013-03-11 20:08:00,
2013-03-11 16:23:00,36.2,34.0,29.65,SW,232,17.0,-999.0,93,-99.99,,,0.04,weatherlink.com 1.10,2013-03-11 20:23:00,
2013-03-11 16:38:00,36.4,34.0,29.65,WSW,240,11.0,-999.0,92,-99.99,,,0.04,weatherlink.com 1.10,2013-03-11 20:38:00,
2013-03-11 16:53:00,36.4,34.0,29.66,West,259,15.0,-999.0,91,-99.99,,,0.04,weatherlink.com 1.10,2013-03-11 20:53:00,
2013-03-11 17:08:00,36.2,34.0,29.66,WSW,238,15.0,-999.0,91,-99.99,,,0.04,weatherlink.com 1.10,2013-03-11 21:08:00,
2013-03-11 17:23:00,36.3,34.0,29.68,WSW,247,16.0,-999.0,90,-99.99,,,0.04,weatherlink.com 1.10,2013-03-11 21:23:00,
2013-03-11 17:38:00,35.9,34.0,29.68,SW,232,21.0,-999.0,91,-99.99,,,0.04,weatherlink.com 1.10,2013-03-11 21:38:00,
2013-03-11 17:53:00,35.7,33.0,29.69,WSW,238,13.0,-999.0,90,-99.99,,,0.04,weatherlink.com 1.10,2013-03-11 21:53:00,
2013-03-11 18:08:00,35.8,33.0,29.69,SW,229,16.0,-999.0,90,-99.99,,,0.04,weatherlink.com 1.10,2013-03-11 22:08:00,
2013-03-11 18:23:00,35.8,33.0,29.70,SW,230,14.0,-999.0,90,-99.99,,,0.04,weatherlink.com 1.10,2013-03-11 22:23:00,
2013-03-11 18:38:00,35.7,33.0,29.70,WSW,247,15.0,-999.0,90,-99.99,,,0.04,weatherlink.com 1.10,2013-03-11 22:38:00,
2013-03-11 18:53:00,35.7,33.0,29.71,WSW,247,11.0,-999.0,90,-99.99,,,0.04,weatherlink.com 1.10,2013-03-11 22:53:00,
2013-03-11 19:08:00,35.5,33.0,29.72,WSW,258,12.0,-999.0,90,-99.99,,,0.04,weatherlink.com 1.10,2013-03-11 23:08:00,
2013-03-11 19:23:00,35.3,33.0,29.73,WSW,248,19.0,-999.0,90,-99.99,,,0.04,weatherlink.com 1.10,2013-03-11 23:23:00,
2013-03-11 19:38:00,34.9,33.0,29.74,WSW,242,14.0,-999.0,92,-99.99,,,0.04,weatherlink.com 1.10,2013-03-11 23:38:00,
2013-03-11 19:53:00,34.6,33.0,29.75,WSW,247,11.0,-999.0,93,-99.99,,,0.04,weatherlink.com 1.10,2013-03-11 23:53:00,
2013-03-11 20:08:00,34.3,33.0,29.75,SW,221,10.0,-999.0,94,-99.99,,,0.04,weatherlink.com 1.10,2013-03-12 00:08:00,
2013-03-11 20:23:00,34.3,33.0,29.76,WSW,251,10.0,-999.0,95,-99.99,,,0.04,weatherlink.com 1.10,2013-03-12 00:23:00,
2013-03-11 20:38:00,34.2,33.0,29.76,WSW,239,16.0,-999.0,95,-99.99,,,0.04,weatherlink.com 1.10,2013-03-12 00:38:00,
2013-03-11 20:53:00,34.3,33.0,29.77,West,263,15.0,-999.0,94,-99.99,,,0.04,weatherlink.com 1.10,2013-03-12 00:53:00,
2013-03-11 21:08:00,34.4,33.0,29.78,WSW,242,12.0,-999.0,93,-99.99,,,0.04,weatherlink.com 1.10,2013-03-12 01:08:00,
2013-03-11 21:23:00,34.3,33.0,29.79,WSW,238,15.0,-999.0,93,-99.99,,,0.04,weatherlink.com 1.10,2013-03-12 01:23:00,
2013-03-11 21:38:00,34.2,33.0,29.79,WSW,240,13.0,-999.0,94,-99.99,,,0.04,weatherlink.com 1.10,2013-03-12 01:38:00,
2013-03-11 21:53:00,34.1,33.0,29.80,SW,225,11.0,-999.0,94,-99.99,,,0.04,weatherlink.com 1.10,2013-03-12 01:53:00,
2013-03-11 22:08:00,34.0,33.0,29.81,WSW,241,13.0,-999.0,94,-99.99,,,0.04,weatherlink.com 1.10,2013-03-12 02:08:00,
2013-03-11 22:23:00,33.9,32.0,29.81,West,265,10.0,-999.0,94,-99.99,,,0.04,weatherlink.com 1.10,2013-03-12 02:23:00,
2013-03-11 22:38:00,34.0,32.0,29.82,WSW,248,10.0,-999.0,93,-99.99,,,0.04,weatherlink.com 1.10,2013-03-12 02:38:00,
2013-03-11 22:53:00,33.8,32.0,29.82,WSW,245,15.0,-999.0,94,-99.99,,,0.04,weatherlink.com 1.10,2013-03-12 02:53:00,
2013-03-11 23:08:00,33.8,32.0,29.83,WSW,252,8.0,-999.0,93,-99.99,,,0.04,weatherlink.com 1.10,2013-03-12 03:08:00,
2013-03-11 23:24:00,33.8,32.0,29.83,WSW,252,7.0,-999.0,93,-99.99,,,0.04,weatherlink.com 1.10,2013-03-12 03:24:00,
2013-03-11 23:39:00,33.8,32.0,29.83,WSW,254,11.0,-999.0,92,-99.99,,,0.04,weatherlink.com 1.10,2013-03-12 03:39:00,
2013-03-11 23:54:00,33.8,32.0,29.84,WSW,251,10.0,-999.0,91,-99.99,,,0.04,weatherlink.com 1.10,2013-03-12 03:54:00,